Torna al catalogo

STARLINK-30320

AttivoComunicazioniVLEO
NORAD 57678·PAYLOAD·🇺🇸 United States

Lanciato Aug 22, 2023 da Vandenberg Space Force Base

Loading…

Prossimi Passaggi (prossime 24 ore)

TLE

AggiornatoSource: CelesTrak SupGP

Epoca: Sep 15, 2026, 02:04 UTC

1 57678C 23124R   26258.08659722 -.00001406  00000+0 -41536-4 0  2580
2 57678  53.1589  30.8296 0001254  89.7284 318.8788 15.34385030    10

Traccia STARLINK-30320 in tempo reale con AllMySat

Download on the App Store